EW0531 Weather Reports


Display with metric or nautical units.
time (UTC)temp
F
wind
direction
speed
MPH
gust
MPH
rain 1hr
in
rain 24hr
in
rain mn
in
humidity
%
barometer
mb
20260903193104 68 214 7.0 14.0 0.00 0.01 0.01 86 1018.2
20260903192536 68 215 7.0 14.0 0.00 0.01 0.01 86 1018.3
20260903192036 68 244 3.0 13.0 0.00 0.01 0.01 87 1018.3
20260903191559 68 265 6.0 19.0 0.00 0.01 0.01 87 1018.2
20260903191036 68 267 6.0 19.0 0.00 0.01 0.01 87 1018.1
20260903190539 68 261 7.0 14.0 0.00 0.01 0.01 87 1018.3
20260903190100 68 189 7.0 13.0 0.00 0.01 0.01 87 1018.4
20260903185535 68 292 4.0 17.0 0.00 0.01 0.01 86 1018.3
20260903185035 68 245 7.0 17.0 0.00 0.01 0.01 86 1018.3
20260903184603 68 210 6.0 14.0 0.00 0.01 0.01 86 1018.3
20260903184038 68 226 6.0 16.0 0.00 0.01 0.01 86 1018.1
20260903183536 68 184 5.0 16.0 0.00 0.01 0.01 86 1018.2
20260903183106 68 288 6.0 16.0 0.00 0.01 0.01 86 1018.1
20260903182539 68 240 5.0 15.0 0.00 0.01 0.01 86 1018.3
20260903182035 68 190 6.0 16.0 0.00 0.01 0.01 86 1018.3
20260903181607 68 251 4.0 16.0 0.00 0.01 0.01 86 1018.4
20260903181036 68 192 4.0 12.0 0.00 0.01 0.01 86 1018.4
20260903180544 68 227 7.0 16.0 0.00 0.01 0.01 86 1018.5
20260903180115 69 214 8.0 16.0 0.00 0.01 0.01 85 1018.5
20260903175536 69 209 6.0 17.0 0.00 0.01 0.01 85 1018.5
20260903175036 69 301 9.0 17.0 0.00 0.01 0.01 85 1018.5
20260903174614 69 268 8.0 17.0 0.00 0.01 0.01 85 1018.3
20260903174038 69 227 8.0 16.0 0.00 0.01 0.01 85 1018.3
20260903173536 69 223 9.0 15.0 0.00 0.01 0.01 84 1018.2
20260903173109 69 196 8.0 16.0 0.00 0.01 0.01 84 1018.3
20260903172536 70 316 10.0 20.0 0.00 0.01 0.01 84 1018.3
20260903172038 70 231 9.0 20.0 0.00 0.01 0.01 83 1018.4
20260903171605 70 215 8.0 21.0 0.00 0.01 0.01 82 1018.2
20260903171036 70 211 8.0 21.0 0.00 0.01 0.01 82 1018.2
20260903170537 70 237 9.0 17.0 0.00 0.01 0.01 82 1018.2
20260903170112 70 252 8.0 16.0 0.00 0.01 0.01 82 1018.2
20260903165535 70 207 7.0 16.0 0.00 0.01 0.01 82 1018.2
20260903165037 70 252 8.0 16.0 0.00 0.01 0.01 82 1018.2
20260903164557 71 248 8.0 16.0 0.00 0.01 0.01 81 1018.3
20260903164035 71 242 9.0 16.0 0.00 0.01 0.01 80 1018.3
20260903163535 72 179 8.0 21.0 0.00 0.01 0.01 79 1018.4
20260903163103 72 205 9.0 21.0 0.00 0.01 0.01 78 1018.3
20260903162534 72 270 8.0 15.0 0.00 0.01 0.01 78 1018.3
20260903162034 73 200 7.0 17.0 0.00 0.01 0.01 77 1018.3
20260903161605 73 200 7.0 17.0 0.00 0.01 0.01 77 1018.2
20260903161036 73 240 8.0 16.0 0.00 0.01 0.01 77 1018.2
20260903160535 73 221 7.0 16.0 0.00 0.01 0.01 76 1018.4
20260903160100 73 267 7.0 15.0 0.00 0.01 0.01 76 1018.2
20260903155539 74 264 8.0 16.0 0.00 0.01 0.01 76 1018.3
20260903155036 74 271 7.0 16.0 0.00 0.01 0.01 76 1018.4
20260903154559 74 248 7.0 15.0 0.00 0.01 0.01 75 1018.3
20260903154036 74 196 8.0 16.0 0.00 0.01 0.01 75 1018.4
20260903153536 74 271 7.0 17.0 0.00 0.01 0.01 75 1018.3
20260903153059 75 236 9.0 17.0 0.00 0.01 0.01 74 1018.4
20260903152537 76 193 6.0 19.0 0.00 0.01 0.01 73 1018.4
20260903152035 75 245 8.0 19.0 0.00 0.01 0.01 72 1018.5
20260903151558 75 222 10.0 19.0 0.00 0.01 0.01 72 1018.6
20260903151034 75 250 10.0 19.0 0.00 0.01 0.01 73 1018.5
20260903150534 75 281 11.0 19.0 0.00 0.01 0.01 72 1018.6
20260903150112 75 294 10.0 18.0 0.00 0.01 0.01 72 1018.5
20260903145534 76 311 7.0 17.0 0.00 0.01 0.01 73 1018.6
20260903145035 75 266 10.0 18.0 0.00 0.01 0.01 73 1018.6
20260903144603 75 262 9.0 18.0 0.00 0.01 0.01 73 1018.6
20260903144035 75 240 9.0 18.0 0.00 0.01 0.01 73 1018.7
20260903143534 75 289 8.0 20.0 0.00 0.01 0.01 75 1018.6
20260903143101 75 254 9.0 20.0 0.00 0.01 0.01 75 1018.7
20260903142535 74 242 9.0 20.0 0.00 0.01 0.01 76 1018.7
20260903142036 74 257 8.0 18.0 0.00 0.01 0.01 76 1018.8
20260903141556 75 221 8.0 16.0 0.00 0.01 0.01 75 1018.9
20260903141034 74 198 8.0 17.0 0.00 0.01 0.01 76 1018.9
20260903140534 74 255 8.0 17.0 0.00 0.01 0.01 76 1018.9
20260903140100 74 213 8.0 16.0 0.00 0.01 0.01 77 1018.9
20260903135536 74 215 7.0 16.0 0.00 0.03 0.01 77 1018.9
20260903135036 74 215 9.0 17.0 0.00 0.03 0.01 76 1018.9
20260903134559 74 219 10.0 17.0 0.00 0.03 0.01 76 1018.9
20260903134035 74 258 7.0 16.0 0.00 0.03 0.01 77 1019.0
20260903133535 74 211 8.0 16.0 0.00 0.03 0.01 77 1018.9
20260903133056 73 240 6.0 16.0 0.00 0.03 0.01 78 1018.8
20260903132537 73 240 8.0 17.0 0.00 0.03 0.01 77 1018.9
20260903132036 74 206 7.0 17.0 0.00 0.03 0.01 77 1018.9
20260903131603 74 223 6.0 17.0 0.00 0.03 0.01 77 1018.9
20260903131038 74 206 7.0 17.0 0.00 0.03 0.01 76 1018.8
20260903130535 74 232 6.0 13.0 0.00 0.03 0.01 77 1018.9
20260903130115 74 277 8.0 13.0 0.00 0.03 0.01 77 1018.9
20260903125536 74 212 7.0 13.0 0.00 0.03 0.01 78 1019.0
20260903125036 73 198 6.0 13.0 0.00 0.03 0.01 78 1019.1
20260903124555 73 202 7.0 16.0 0.00 0.03 0.01 78 1019.1
20260903124036 74 215 8.0 16.0 0.00 0.03 0.01 78 1019.3
20260903123536 74 252 7.0 14.0 0.00 0.03 0.01 78 1019.3
20260903123102 73 209 6.0 14.0 0.00 0.03 0.01 79 1019.2
20260903122536 73 226 6.0 17.0 0.00 0.03 0.01 79 1019.2
20260903122036 73 202 8.0 17.0 0.00 0.03 0.01 78 1019.3
20260903121607 73 275 10.0 16.0 0.00 0.03 0.01 78 1019.3
20260903121036 73 257 6.0 16.0 0.00 0.03 0.01 79 1019.2
20260903120536 73 243 6.0 16.0 0.00 0.03 0.01 79 1019.2
20260903120059 73 240 5.0 17.0 0.00 0.03 0.01 80 1019.2
20260903115537 72 181 4.0 17.0 0.00 0.03 0.01 80 1019.1
20260903115036 73 206 7.0 15.0 0.00 0.03 0.01 79 1019.2
20260903114609 73 238 7.0 15.0 0.00 0.03 0.01 79 1019.2
20260903114036 72 219 6.0 15.0 0.00 0.03 0.01 79 1019.1
20260903113536 72 218 7.0 11.0 0.00 0.03 0.01 80 1019.1
20260903113101 72 223 4.0 14.0 0.00 0.03 0.01 81 1019.1
20260903112539 72 240 7.0 14.0 0.00 0.03 0.01 80 1019.1
20260903112035 72 242 6.0 14.0 0.00 0.03 0.01 80 1019.2
20260903111623 72 231 5.0 17.0 0.00 0.03 0.01 81 1019.2
20260903111036 72 234 3.0 17.0 0.00 0.03 0.01 81 1019.1
20260903110535 72 227 9.0 15.0 0.00 0.03 0.01 79 1019.3
20260903110109 73 213 3.0 12.0 0.00 0.03 0.01 79 1019.3
20260903105540 72 217 5.0 12.0 0.00 0.03 0.01 78 1019.2
20260903105039 72 267 5.0 12.0 0.00 0.03 0.01 79 1019.2
20260903104632 72 217 5.0 11.0 0.00 0.03 0.01 80 1019.3
20260903104035 71 278 5.0 13.0 0.00 0.03 0.01 80 1019.3
20260903103538 71 255 5.0 13.0 0.00 0.03 0.01 81 1019.2
20260903103059 71 299 3.0 12.0 0.00 0.03 0.01 82 1019.3
20260903102535 71 242 5.0 12.0 0.00 0.03 0.01 82 1019.3
20260903102035 71 211 3.0 11.0 0.00 0.03 0.01 82 1019.3
20260903101555 70 239 6.0 11.0 0.00 0.03 0.01 82 1019.3
20260903101036 70 255 6.0 10.0 0.00 0.03 0.01 82 1019.3
20260903100535 70 217 6.0 10.0 0.00 0.03 0.01 82 1019.3
20260903100058 70 286 5.0 10.0 0.00 0.03 0.01 83 1019.2
20260903095536 70 240 5.0 10.0 0.00 0.03 0.01 83 1019.3
20260903095036 70 229 6.0 12.0 0.00 0.03 0.01 83 1019.4
20260903094607 70 217 6.0 12.0 0.00 0.03 0.01 82 1019.4
20260903094036 70 234 6.0 11.0 0.00 0.03 0.01 82 1019.3
20260903093539 70 261 5.0 12.0 0.00 0.03 0.01 82 1019.3
20260903093100 70 210 4.0 12.0 0.00 0.03 0.01 82 1019.3
20260903092534 70 189 4.0 12.0 0.00 0.03 0.01 82 1019.3
20260903092034 70 271 5.0 12.0 0.00 0.03 0.01 82 1019.3
20260903091555 70 159 5.0 13.0 0.00 0.03 0.01 81 1019.2
20260903091036 70 213 5.0 13.0 0.00 0.03 0.01 81 1019.1
20260903090540 70 225 5.0 12.0 0.00 0.03 0.01 81 1019.1
20260903090104 70 224 8.0 14.0 0.00 0.03 0.01 81 1019.1
20260903085534 70 196 6.0 14.0 0.00 0.03 0.01 82 1019.1
20260903085039 69 276 3.0 13.0 0.00 0.03 0.01 83 1019.0
20260903084559 69 275 4.0 15.0 0.00 0.03 0.01 84 1019.1
20260903084037 69 255 6.0 15.0 0.00 0.03 0.01 85 1019.1
20260903083535 69 242 5.0 15.0 0.00 0.03 0.01 86 1019.0
20260903083059 68 204 6.0 14.0 0.00 0.03 0.01 87 1019.1
20260903082535 68 238 4.0 11.0 0.00 0.03 0.01 88 1019.1
20260903082034 68 210 4.0 11.0 0.00 0.03 0.01 88 1019.0
20260903081600 68 248 2.0 8.0 0.00 0.03 0.01 88 1019.0
20260903081035 67 223 2.0 12.0 0.00 0.03 0.01 89 1019.1
20260903080555 67 0 3.0 12.0 0.00 0.03 0.01 89 1019.1
20260903080054 67 250 4.0 11.0 0.00 0.03 0.01 89 1019.1
20260903075536 67 209 3.0 11.0 0.00 0.03 0.01 89 1019.0
20260903075034 67 259 5.0 11.0 0.00 0.03 0.01 89 1018.9
20260903074603 67 244 4.0 11.0 0.00 0.03 0.01 89 1018.8
20260903074036 67 0 3.0 13.0 0.00 0.03 0.01 89 1018.9
20260903073536 67 0 3.0 13.0 0.00 0.03 0.01 89 1018.9
20260903073105 67 249 5.0 13.0 0.00 0.03 0.01 89 1018.9
20260903072538 67 258 6.0 12.0 0.00 0.03 0.01 89 1018.7
20260903072035 67 0 4.0 12.0 0.00 0.03 0.01 89 1018.5
20260903071604 67 0 5.0 11.0 0.00 0.03 0.01 89 1018.6
20260903071035 67 0 5.0 10.0 0.00 0.03 0.01 89 1018.6
20260903070539 67 230 3.0 10.0 0.00 0.03 0.01 89 1018.5
20260903070107 67 217 2.0 12.0 0.00 0.03 0.01 89 1018.5
20260903065536 66 263 4.0 12.0 0.00 0.03 0.01 89 1018.5
20260903065036 66 221 4.0 12.0 0.01 0.03 0.01 89 1018.5
20260903064559 66 222 3.0 11.0 0.01 0.03 0.01 90 1018.3
20260903064036 66 194 4.0 11.0 0.01 0.03 0.01 90 1018.4
20260903063535 66 215 3.0 9.0 0.01 0.03 0.01 90 1018.4
20260903063058 66 221 2.0 9.0 0.01 0.03 0.01 89 1018.6
20260903062539 66 205 5.0 12.0 0.01 0.03 0.01 89 1018.6
20260903062036 66 0 2.0 12.0 0.01 0.03 0.01 89 1018.6
20260903061604 66 274 3.0 8.0 0.01 0.03 0.01 89 1018.6
20260903061037 66 197 2.0 6.0 0.01 0.03 0.01 89 1018.6
20260903060536 66 0 2.0 8.0 0.00 0.02 0.00 89 1018.6
20260903060106 66 225 3.0 8.0 0.00 0.02 0.00 89 1018.6
20260903055536 66 219 2.0 9.0 0.00 0.02 0.00 89 1018.6
20260903055033 66 275 3.0 10.0 0.00 0.01 0.00 89 1018.5
20260903054559 66 198 5.0 10.0 0.00 0.01 0.00 89 1018.5
20260903054036 66 221 3.0 9.0 0.00 0.01 0.00 89 1018.5
20260903053547 66 245 3.0 12.0 0.00 0.01 0.00 89 1018.6
20260903053109 66 215 4.0 12.0 0.00 0.01 0.00 89 1018.5
20260903052538 66 214 5.0 11.0 0.00 0.01 0.00 89 1018.5
20260903052037 66 229 3.0 13.0 0.00 0.01 0.00 89 1018.5
20260903051607 66 262 6.0 14.0 0.00 0.01 0.00 89 1018.3
20260903051038 66 206 7.0 14.0 0.00 0.01 0.00 89 1018.1
20260903050536 66 257 5.0 14.0 0.00 0.01 0.00 89 1018.0
20260903050108 66 223 6.0 14.0 0.00 0.01 0.00 89 1017.9
20260903045537 66 255 6.0 13.0 0.00 0.01 0.00 89 1018.0
20260903045036 66 238 7.0 14.0 0.00 0.01 0.00 89 1018.1
20260903044606 66 232 8.0 14.0 0.00 0.01 0.00 89 1018.0
20260903044035 66 244 7.0 16.0 0.00 0.01 0.00 89 1017.9
20260903043539 66 176 8.0 16.0 0.00 0.01 0.00 89 1017.9
20260903043054 66 261 8.0 16.0 0.00 0.01 0.00 88 1017.9
20260903042538 66 257 7.0 16.0 0.00 0.01 0.00 88 1017.9
20260903042038 66 252 6.0 16.0 0.00 0.01 0.00 88 1017.9
20260903041602 66 240 9.0 18.0 0.00 0.01 0.00 88 1017.7
20260903041038 66 259 8.0 18.0 0.00 0.01 0.00 88 1017.7
20260903040538 66 218 8.0 18.0 0.00 0.01 0.00 88 1017.6
20260903040109 66 237 6.0 19.0 0.00 0.01 0.00 88 1017.7
20260903035537 66 272 8.0 19.0 0.00 0.01 0.00 88 1017.8
20260903035037 66 214 7.0 18.0 0.00 0.01 0.00 88 1017.8
20260903034554 66 216 5.0 13.0 0.00 0.01 0.00 88 1017.7
20260903034037 66 204 7.0 14.0 0.00 0.01 0.00 88 1017.7
20260903033533 66 263 6.0 14.0 0.00 0.01 0.00 88 1017.7
20260903033105 66 217 6.0 16.0 0.00 0.01 0.00 88 1017.8
20260903032537 66 257 7.0 16.0 0.00 0.01 0.00 88 1017.8
20260903032034 66 200 6.0 14.0 0.00 0.01 0.00 88 1017.7
20260903031612 66 213 5.0 14.0 0.00 0.01 0.00 88 1018.0
20260903031036 66 271 7.0 14.0 0.00 0.01 0.00 88 1018.0
20260903030534 66 224 6.0 14.0 0.00 0.01 0.00 88 1018.1
20260903030113 66 266 5.0 12.0 0.00 0.01 0.00 88 1017.9
20260903025535 66 251 5.0 12.0 0.00 0.01 0.00 88 1017.9
20260903025037 66 246 5.0 12.0 0.00 0.01 0.00 88 1017.7
20260903024555 66 219 4.0 12.0 0.00 0.01 0.00 87 1017.8
20260903024036 66 255 6.0 15.0 0.00 0.01 0.00 87 1018.1
20260903023536 66 282 6.0 15.0 0.00 0.01 0.00 87 1018.0
20260903023101 66 219 6.0 14.0 0.00 0.01 0.00 87 1017.9
20260903022538 66 211 4.0 10.0 0.00 0.01 0.00 87 1017.9
20260903022038 66 227 4.0 11.0 0.00 0.01 0.00 87 1017.8
20260903021559 66 211 7.0 12.0 0.00 0.01 0.00 87 1017.9
20260903021037 66 261 6.0 12.0 0.00 0.01 0.00 87 1018.0
20260903020537 66 225 4.0 12.0 0.00 0.01 0.00 87 1017.9
20260903020100 66 257 6.0 13.0 0.00 0.01 0.00 87 1018.0
20260903015538 66 210 5.0 14.0 0.00 0.01 0.00 87 1018.1
20260903015040 66 215 3.0 14.0 0.00 0.01 0.00 87 1018.0
20260903014610 66 232 6.0 13.0 0.00 0.01 0.00 87 1018.1
20260903014038 66 222 5.0 11.0 0.00 0.01 0.00 87 1018.0
20260903013540 66 249 4.0 10.0 0.00 0.01 0.00 87 1017.9
20260903013102 66 267 4.0 10.0 0.00 0.01 0.00 87 1017.8
20260903012538 66 245 5.0 10.0 0.00 0.01 0.00 87 1017.9
20260903012042 66 237 5.0 13.0 0.00 0.01 0.00 87 1018.0
20260903011608 66 242 6.0 17.0 0.00 0.01 0.00 87 1018.0
20260903011038 66 223 6.0 17.0 0.00 0.01 0.00 87 1018.1
20260903010541 66 239 8.0 17.0 0.00 0.01 0.00 87 1018.1
20260903010117 66 257 6.0 14.0 0.00 0.01 0.00 87 1018.1
20260903005541 66 252 5.0 13.0 0.00 0.01 0.00 87 1018.2
20260903005038 66 224 5.0 11.0 0.00 0.01 0.00 87 1018.2
20260903004559 66 259 5.0 11.0 0.00 0.01 0.00 87 1018.2
20260903004039 66 264 5.0 10.0 0.00 0.01 0.00 87 1018.3
20260903003536 66 221 3.0 12.0 0.00 0.01 0.00 87 1018.2
20260903003058 66 270 6.0 14.0 0.00 0.01 0.00 87 1018.3
20260903002536 66 213 6.0 17.0 0.00 0.01 0.00 87 1018.3
20260903002036 66 221 7.0 17.0 0.00 0.01 0.00 87 1018.4
20260903001604 66 261 9.0 16.0 0.00 0.01 0.00 86 1018.6
20260903001036 66 209 5.0 17.0 0.00 0.01 0.00 86 1018.6
20260903000536 66 286 7.0 17.0 0.00 0.01 0.00 86 1018.8
20260903000100 66 259 7.0 17.0 0.00 0.01 0.00 86 1018.8
20260902235533 66 236 6.0 17.0 0.00 0.01 0.00 86 1018.6
20260902235033 66 227 6.0 16.0 0.00 0.01 0.00 86 1018.4
20260902234556 66 261 6.0 15.0 0.00 0.01 0.00 86 1018.4
20260902234037 66 246 6.0 12.0 0.00 0.01 0.00 86 1018.3
20260902233536 66 218 7.0 13.0 0.00 0.01 0.00 86 1018.3
20260902233059 66 254 7.0 15.0 0.00 0.01 0.00 86 1018.2
20260902232536 66 197 8.0 15.0 0.00 0.01 0.00 86 1018.1
20260902232034 66 214 8.0 14.0 0.00 0.01 0.00 86 1018.2
20260902231610 66 262 4.0 15.0 0.00 0.01 0.00 86 1018.4
20260902231036 66 240 4.0 15.0 0.00 0.01 0.00 86 1018.5
20260902230535 66 227 7.0 15.0 0.00 0.01 0.00 86 1018.5
20260902230057 66 208 6.0 17.0 0.00 0.01 0.00 86 1018.5
20260902225536 66 231 7.0 17.0 0.00 0.01 0.01 86 1018.5
20260902225035 66 290 7.0 17.0 0.00 0.01 0.01 86 1018.6
20260902224604 66 238 4.0 11.0 0.00 0.01 0.01 86 1018.7
20260902224036 66 221 5.0 11.0 0.00 0.01 0.01 86 1018.8
20260902223535 66 264 5.0 10.0 0.00 0.01 0.01 86 1018.8
20260902223106 66 240 4.0 12.0 0.00 0.01 0.01 86 1018.8
20260902222538 66 199 5.0 12.0 0.00 0.01 0.01 86 1018.8
20260902222036 66 276 6.0 10.0 0.00 0.01 0.01 86 1018.7
20260902221627 66 184 4.0 10.0 0.00 0.01 0.01 86 1018.6
20260902221034 66 229 5.0 10.0 0.00 0.01 0.01 86 1018.6
20260902220536 66 192 4.0 12.0 0.00 0.01 0.01 86 1018.6
20260902220104 66 205 6.0 12.0 0.00 0.01 0.01 86 1018.6
20260902215535 66 211 4.0 13.0 0.00 0.01 0.01 86 1018.7
20260902215035 66 210 5.0 13.0 0.00 0.01 0.01 87 1018.7
20260902214601 66 244 6.0 14.0 0.00 0.01 0.01 87 1018.7
20260902214036 66 212 5.0 14.0 0.00 0.01 0.01 87 1018.5
20260902213539 66 214 6.0 14.0 0.00 0.01 0.01 87 1018.4
20260902213107 66 249 4.0 14.0 0.00 0.01 0.01 86 1018.3
20260902212539 66 246 5.0 14.0 0.00 0.01 0.01 86 1018.2
20260902212038 66 266 5.0 13.0 0.00 0.01 0.01 86 1018.2
20260902211603 66 205 6.0 13.0 0.00 0.01 0.01 86 1018.3
20260902211039 66 232 4.0 12.0 0.00 0.01 0.01 86 1018.2
20260902210541 66 202 4.0 13.0 0.00 0.01 0.01 86 1018.2
20260902205538 66 225 4.0 10.0 0.00 0.01 0.01 86 1018.3
20260902205037 66 207 4.0 10.0 0.00 0.01 0.01 86 1018.3
20260902204557 66 252 3.0 15.0 0.00 0.01 0.01 86 1018.5
20260902204037 66 228 5.0 15.0 0.00 0.01 0.01 86 1018.6
20260902203535 66 265 4.0 11.0 0.00 0.01 0.01 86 1018.7
20260902203055 66 291 5.0 14.0 0.00 0.01 0.01 86 1018.7
20260902202536 66 264 5.0 14.0 0.00 0.01 0.01 86 1018.5
20260902202036 66 238 5.0 15.0 0.00 0.01 0.01 86 1018.4
20260902201609 66 256 8.0 16.0 0.00 0.01 0.01 86 1018.3
20260902201033 66 250 4.0 16.0 0.00 0.01 0.01 86 1018.3
20260902200536 66 216 4.0 13.0 0.00 0.01 0.01 86 1018.4
20260902200100 66 254 6.0 13.0 0.00 0.01 0.01 86 1018.3
20260902195533 66 248 4.0 15.0 0.00 0.01 0.01 86 1018.3
20260902195033 66 228 6.0 15.0 0.00 0.01 0.01 86 1018.3
20260902194555 66 240 7.0 14.0 0.00 0.01 0.01 86 1018.2
20260902194033 66 276 6.0 16.0 0.00 0.01 0.01 86 1018.2
20260902193535 66 215 9.0 16.0 0.00 0.01 0.01 86 1018.1